Wind_Speed
83 88 89 92 94 101 110 114 115 119 128 134 132 127 114 108 101 99 95 88 84 80 77 74 74 70 69 68 64 60 52 53 54 53 59 56 63 67 71 73 77 72 64 65 62 62 60 62 61 64 60 55 60 66
82 89 91 93 93 99 107 112 114 115 124 131 130 125 117 111 102 95 92 88 83 79 77 73 73 72 70 66 63 60 61 57 54 52 54 61 58 66 70 73 73 73 73 69 67 67 66 65 66 57 57 62 69 69
84 90 92 92 92 95 104 108 109 110 120 128 130 124 119 111 102 95 93 90 86 81 77 70 70 70 68 65 63 61 57 55 54 54 48 53 58 62 67 72 71 73 77 71 68 64 65 65 67 65 67 69 68 71
85 92 92 90 91 95 103 106 108 109 116 124 130 124 118 109 102 97 94 93 88 82 74 72 71 67 66 66 61 60 54 48 51 43 46 51 57 66 68 70 68 72 73 73 73 73 69 70 71 70 70 69 70 74
85 92 93 90 90 93 100 105 107 107 114 122 128 122 113 109 103 101 96 91 86 83 73 71 68 67 66 64 60 58 52 46 47 46 45 45 48 53 61 65 67 66 67 68 73 78 78 69 66 68 66 69 70 66
86 92 93 89 90 95 100 105 106 106 114 124 126 123 116 110 107 103 95 88 83 78 69 65 64 64 67 65 58 56 48 45 38 35 32 38 46 47 48 51 52 57 59 64 66 69 67 62 67 64 67 63 66 75
88 91 92 91 93 95 99 105 107 106 113 123 124 120 115 112 103 96 88 83 78 72 72 69 65 62 65 62 56 53 48 47 37 35 33 35 41 44 47 49 52 51 49 50 52 59 62 61 59 61 63 73 74 71
90 92 92 94 95 97 102 106 106 107 119 123 121 116 110 103 99 97 89 83 80 75 70 66 59 57 62 58 58 54 51 48 41 32 32 34 34 37 39 43 45 48 51 54 55 53 52 53 60 67 67 67 70 74
92 93 95 96 98 99 104 104 105 116 124 123 117 111 106 103 97 91 85 81 80 75 70 62 57 60 59 58 57 49 49 43 38 32 33 32 35 34 38 39 40 40 42 43 45 50 53 58 61 61 64 68 71 73
94 96 97 98 100 103 106 107 113 119 121 117 114 111 105 97 92 85 86 82 79 76 65 59 58 61 61 55 52 44 42 41 34 33 32 35 37 37 36 37 37 39 43 46 50 53 55 56 58 62 64 67 71 76
97 97 97 101 103 107 107 110 113 115 116 117 113 106 98 91 89 91 85 83 81 69 61 55 60 62 59 49 44 45 43 36 33 36 35 33 35 36 34 36 39 42 45 48 49 52 55 58 61 64 68 71 74 77
98 96 101 105 109 112 111 116 118 116 112 108 104 99 94 96 94 89 86 83 75 61 55 57 59 62 56 47 44 44 44 37 36 37 38 40 41 37 38 42 44 46 45 47 51 54 57 61 65 67 69 71 76 81
98 103 105 108 111 111 106 111 118 118 112 106 103 98 100 98 95 89 80 74 63 51 53 60 64 61 47 43 44 45 42 40 39 40 41 42 42 41 42 42 43 44 46 49 53 56 59 61 65 69 73 76 80 83
103 106 107 111 112 111 116 114 108 105 102 101 100 98 93 91 83 75 67 61 57 63 66 62 63 49 45 44 39 38 39 40 44 45 42 40 42 42 44 47 46 47 50 51 54 57 61 65 69 73 76 80 85 88
107 111 114 115 117 116 117 117 114 108 103 102 97 94 87 78 73 72 70 68 67 63 62 60 58 48 44 42 38 37 38 42 46 44 42 41 43 46 46 47 48 51 54 56 59 62 65 68 72 75 81 85 91 96
112 115 117 118 121 121 112 107 110 113 103 94 84 81 81 79 75 73 71 63 61 59 57 51 45 46 44 40 39 37 37 40 43 45 45 45 46 47 47 49 51 54 58 61 62 63 67 72 76 81 85 90 95 100
112 116 118 117 113 111 113 105 95 89 88 85 83 83 83 82 76 70 63 59 59 58 51 45 43 44 43 40 40 41 38 38 40 44 45 46 46 47 49 51 54 57 58 61 63 67 72 77 82 86 93 98 102 107
111 114 115 113 110 106 100 94 93 89 87 84 80 74 74 72 68 61 61 59 57 53 46 44 42 41 41 39 39 40 39 39 40 41 42 44 46 50 52 55 55 57 60 63 67 71 78 84 89 94 97 101 107 112
107 106 104 102 102 101 100 96 92 89 87 80 79 79 65 61 62 62 58 55 51 46 43 42 41 38 36 35 36 37 38 39 41 43 45 47 49 50 52 53 55 59 63 67 74 80 85 91 94 98 105 110 113 117
102 98 98 99 99 98 94 93 92 88 83 75 62 56 60 62 59 59 57 51 44 43 43 39 36 36 35 36 36 37 38 39 41 43 46 48 49 51 54 56 59 63 69 75 80 85 91 94 101 105 109 113 117 120
102 97 95 96 93 90 88 80 73 70 67 62 56 53 54 56 58 52 49 46 46 44 39 37 36 36 37 35 37 39 40 39 41 44 45 48 52 54 56 59 64 70 75 80 86 90 95 100 105 108 115 118 123 125
92 94 94 89 84 82 81 75 67 61 56 50 48 45 45 46 49 45 45 44 42 40 38 39 38 36 37 38 39 38 38 41 43 44 48 51 54 57 60 65 70 75 79 83 89 95 99 103 109 114 116 120 125 128
82 80 81 79 77 74 72 69 64 58 54 49 46 45 43 46 44 44 42 38 37 38 38 36 36 37 37 36 37 38 40 42 45 48 52 54 57 61 66 70 74 78 83 88 93 97 103 107 113 115 118 123 125 129
73 69 69 69 69 68 64 63 61 58 50 47 48 46 43 42 40 38 38 38 38 37 36 36 36 35 36 36 37 40 43 46 48 51 54 58 62 66 70 74 78 82 87 93 97 101 106 109 111 116 118 120 126 130
63 63 65 66 64 61 57 54 52 48 45 45 47 46 41 38 39 40 40 36 35 37 36 34 35 35 38 40 41 43 45 48 51 54 58 63 67 71 76 78 82 88 92 96 101 104 107 106 109 112 118 123 127 131
55 51 52 52 52 51 48 46 47 47 48 47 43 40 41 40 38 39 38 36 34 33 35 36 36 38 40 43 45 47 50 52 55 59 64 68 73 76 79 84 89 92 95 99 103 102 102 106 111 117 121 126 128 129
51 52 52 51 52 50 49 49 48 48 45 43 41 40 40 40 39 37 35 35 36 36 37 37 39 42 45 47 50 52 54 57 60 63 68 73 77 80 83 87 90 95 98 98 98 100 104 106 112 116 120 125 126 120
55 53 52 53 54 54 54 51 48 44 41 41 43 43 42 42 42 40 38 37 38 39 41 42 44 47 50 52 54 57 60 62 65 69 73 78 80 83 87 92 96 94 93 95 99 101 106 108 115 115 120 119 119 110
51 50 49 48 49 50 52 51 51 47 45 46 49 49 48 45 43 41 42 42 42 43 45 47 49 51 54 57 59 62 63 67 70 75 79 80 84 86 90 92 88 90 92 96 100 104 108 113 116 116 116 117 110 101
51 52 46 45 47 50 50 50 51 50 50 50 50 48 47 46 46 46 46 45 45 47 49 52 54 57 59 62 63 65 68 71 76 78 80 83 85 89 90 88 90 92 95 98 102 108 112 115 117 118 114 111 101 91
42 43 44 45 48 49 50 52 51 49 49 48 48 49 50 50 48 47 47 49 51 53 55 57 58 60 62 64 66 69 73 75 78 80 83 86 84 87 87 88 91 96 99 103 108 111 115 115 118 114 109 100 90 83
39 40 41 42 41 43 50 52 50 49 49 50 48 46 46 47 48 50 51 52 54 55 57 58 60 62 65 68 71 74 76 77 79 83 84 84 89 87 89 92 96 100 104 112 112 114 117 117 114 110 100 89 82 76
44 44 45 45 46 48 49 50 50 49 49 47 46 46 47 49 50 52 52 54 55 57 60 63 66 69 71 74 75 75 76 79 81 81 82 86 90 90 93 96 101 107 112 113 114 118 116 109 102 95 87 80 75 70
Wind_Direction
198 198 199 199 198 196 197 198 199 199 199 202 204 207 207 207 208 209 215 216 217 221 225 226 225 228 231 232 234 235 235 237 236 235 239 244 246 245 246 247 246 244 246 252 260 259 261 266 273 277 275 279 282 288
195 195 197 198 196 194 195 196 197 196 196 198 201 205 206 205 207 210 212 214 214 220 224 227 227 227 231 232 235 235 233 239 244 244 243 243 246 243 247 248 247 247 246 251 260 257 264 267 276 271 273 279 284 289
192 192 194 195 193 191 193 194 195 195 195 196 199 202 203 203 205 207 209 216 220 221 224 225 226 227 230 231 233 237 237 237 241 240 245 250 252 245 243 248 251 250 251 254 255 263 270 270 271 274 279 283 287 290
190 190 192 192 190 188 190 191 191 192 193 194 197 200 202 202 203 206 209 214 216 219 222 222 227 229 230 230 232 236 238 240 234 235 243 249 252 248 248 247 253 250 250 253 258 264 265 271 274 276 280 284 287 290
187 188 189 189 186 185 186 187 188 190 190 192 194 196 198 199 202 205 209 213 217 220 221 222 225 228 228 229 230 237 239 234 229 234 241 245 247 249 251 249 255 255 257 262 264 261 268 270 274 278 283 286 292 289
184 185 187 185 181 182 184 185 185 186 186 188 192 195 197 199 202 205 209 212 215 218 220 222 223 224 226 228 228 233 236 224 227 235 237 242 242 245 249 251 255 259 260 260 263 261 264 270 275 280 285 286 284 289
180 181 182 178 178 180 180 182 182 183 184 186 190 193 195 200 202 206 209 214 216 218 219 219 221 224 226 227 227 231 229 222 224 229 235 243 242 243 245 248 251 254 259 258 260 262 268 275 279 282 281 289 292 290
177 178 176 174 175 177 178 179 180 180 181 184 188 189 193 196 199 204 206 210 212 216 217 218 222 223 224 222 226 229 223 222 227 231 240 243 244 239 240 245 250 253 256 263 269 274 275 276 281 288 290 289 289 290
173 172 172 172 173 174 175 175 176 177 180 183 185 188 190 194 199 202 206 211 213 216 215 217 220 221 222 221 227 227 218 221 228 231 240 243 246 242 245 250 253 259 264 266 267 269 277 284 287 289 289 290 292 294
169 169 170 170 169 170 171 172 174 176 178 181 184 188 190 192 196 200 203 208 212 215 212 216 217 219 219 223 227 225 221 222 223 231 237 238 245 246 249 254 256 256 258 266 275 282 284 285 286 289 291 293 295 296
166 167 168 167 167 167 168 170 172 174 177 181 184 187 187 189 192 197 203 209 213 213 211 218 216 217 216 223 222 219 218 218 224 236 238 240 246 250 253 258 263 268 274 277 278 279 282 286 290 291 293 294 296 298
163 165 165 164 164 166 167 169 172 174 179 181 184 185 186 189 197 203 206 208 211 209 213 216 218 218 220 219 214 215 220 223 230 237 241 246 250 256 256 262 268 269 272 277 280 284 288 289 290 292 294 297 299 298
161 163 162 162 163 164 165 166 170 175 177 179 181 184 192 199 201 204 206 210 209 209 212 216 216 218 219 216 215 221 222 224 234 243 244 245 252 257 263 268 270 273 276 280 282 284 288 290 292 295 298 298 298 298
160 159 159 159 161 161 163 169 171 171 175 180 184 188 193 197 200 202 207 210 207 209 212 215 218 217 211 212 217 224 226 233 237 242 247 251 255 264 269 271 274 277 279 282 283 286 289 293 295 296 296 297 298 300
157 156 156 157 159 160 164 170 171 174 178 181 184 187 191 196 200 203 203 204 208 209 209 213 218 214 211 211 217 226 234 238 240 247 254 261 265 269 272 271 274 278 280 281 285 289 292 293 295 295 297 299 301 302
154 154 156 157 159 164 167 167 172 179 178 177 182 186 191 195 199 202 204 206 205 205 208 212 212 212 212 214 223 230 235 240 245 251 258 266 269 269 268 271 276 280 281 283 287 291 294 296 296 298 301 302 304 305
153 154 154 157 161 162 164 171 169 171 172 177 181 187 193 197 199 200 200 201 201 204 207 206 207 210 213 219 227 232 241 248 251 254 260 263 264 267 271 274 277 280 284 288 291 293 296 297 298 301 302 304 306 307
152 155 158 160 161 162 164 166 169 171 175 180 183 184 192 197 196 197 195 194 199 202 203 206 207 209 214 224 232 239 246 250 252 255 259 264 266 269 273 278 280 284 289 292 294 297 297 299 301 303 305 305 306 307
152 155 157 158 160 165 168 169 170 173 177 181 186 193 192 188 191 191 192 199 199 200 205 205 207 211 222 231 237 242 247 251 254 259 263 266 269 274 277 281 286 291 293 296 298 299 302 302 303 303 304 307 308 308
153 157 159 164 167 169 170 173 175 176 181 186 185 186 189 192 193 194 198 200 201 203 205 206 215 223 230 234 238 244 249 253 258 263 267 270 274 278 284 289 293 296 297 299 301 303 303 305 306 306 307 308 308 308
157 161 165 169 171 171 171 176 177 179 182 184 186 189 193 197 196 197 201 205 202 203 206 214 223 227 230 238 245 248 252 258 263 266 271 277 282 286 292 295 296 298 300 302 304 305 305 308 308 310 310 310 310 311
162 167 167 167 169 172 174 177 179 180 183 187 193 195 196 198 195 199 201 199 201 206 214 220 224 230 237 241 246 252 261 264 268 274 279 282 287 292 295 297 299 301 303 304 304 306 309 309 309 309 310 310 310 310
165 164 165 168 169 171 174 176 177 179 181 179 180 188 192 191 195 194 193 199 205 210 215 221 228 234 240 248 255 258 263 269 274 278 283 289 293 295 298 299 301 303 304 305 307 308 308 310 309 310 309 308 309 310
163 166 168 170 171 173 174 176 177 181 181 182 183 182 182 184 189 196 200 203 206 213 219 225 231 239 249 251 257 265 270 273 279 286 291 293 295 298 299 300 302 304 304 306 307 308 308 310 309 309 309 309 310 311
165 168 170 171 173 173 175 178 180 180 182 184 182 181 184 191 194 196 200 205 212 218 226 234 240 244 252 260 267 269 275 282 288 291 293 295 297 298 299 301 304 304 306 307 308 309 309 308 307 308 309 309 311 313
159 162 166 167 169 171 175 177 179 182 184 185 186 189 193 196 198 202 208 215 224 230 233 240 250 258 264 267 271 277 282 287 290 293 295 296 296 297 301 303 304 306 306 307 309 308 308 309 308 308 309 310 313 316
159 162 164 165 168 172 176 179 182 186 190 194 197 201 201 202 206 213 219 224 230 235 244 253 260 263 268 273 278 283 285 287 289 293 295 295 297 300 301 303 305 306 308 308 308 308 308 311 311 311 312 314 315 319
170 171 172 174 176 178 181 184 189 193 196 199 201 201 204 209 214 219 225 231 238 246 254 259 263 267 273 279 281 283 285 287 289 292 293 296 298 300 302 303 307 308 306 307 307 309 312 313 311 313 315 317 318 321
170 172 172 178 182 185 189 194 197 198 202 205 207 210 214 220 225 229 234 241 247 252 258 262 266 272 275 278 282 284 286 287 289 291 294 297 298 301 304 306 307 305 308 310 310 312 313 313 314 315 316 317 320 321
179 183 186 189 192 194 197 199 201 204 208 212 215 219 222 227 233 238 242 246 252 257 262 265 268 272 275 279 283 284 286 287 290 293 296 298 303 305 306 307 307 312 313 312 314 314 314 316 316 316 317 318 321 321
179 184 190 194 198 201 204 205 208 211 214 218 222 226 232 236 239 243 248 253 257 260 263 267 270 274 278 280 282 284 286 290 293 296 299 302 304 307 310 310 313 315 315 316 315 315 316 316 316 317 318 321 321 320
193 195 199 203 207 210 210 210 213 216 219 224 230 235 239 243 246 250 254 258 261 263 266 269 272 276 278 281 283 287 290 294 297 299 301 303 306 310 311 315 316 318 319 318 318 317 316 317 319 319 321 321 321 322
205 206 206 206 209 211 213 216 219 223 227 231 235 240 244 248 251 254 256 259 261 263 266 270 274 278 281 284 287 291 295 298 299 301 305 307 310 312 314 317 321 320 319 319 319 317 318 319 320 322 323 323 323 322
Height
10022 10043 10064 10087 10111 10137 10160 10190 10220 10250 10284 10316 10353 10383 10412 10439 10459 10477 10501 10514 10527 10542 10556 10567 10578 10587 10596 10605 10613 10621 10628 10632 10636 10642 10647 10652 10657 10660 10665 10669 10672 10679 10684 10686 10689 10691 10692 10687 10687 10685 10681 10676 10670 10665
10012 10032 10052 10074 10100 10126 10152 10179 10207 10239 10271 10305 10341 10370 10401 10428 10450 10470 10488 10503 10517 10533 10545 10557 10567 10577 10586 10596 10605 10609 10617 10623 10628 10633 10636 10640 10647 10651 10656 10661 10664 10668 10673 10674 10676 10677 10678 10678 10675 10670 10665 10662 10657 10652
9999 10021 10042 10066 10094 10120 10145 10172 10204 10235 10264 10298 10330 10360 10390 10421 10445 10462 10476 10495 10509 10523 10534 10551 10562 10568 10578 10587 10594 10601 10607 10613 10618 10622 10627 10633 10636 10638 10645 10648 10650 10655 10657 10660 10661 10664 10665 10664 10660 10657 10653 10648 10643 10638
9990 10012 10035 10060 10087 10113 10137 10168 10198 10227 10260 10292 10322 10354 10386 10415 10437 10451 10467 10486 10498 10514 10529 10540 10549 10562 10568 10577 10586 10591 10599 10606 10611 10616 10620 10623 10625 10627 10631 10635 10639 10641 10645 10647 10652 10651 10650 10648 10647 10644 10640 10635 10630 10623
9984 10006 10030 10054 10083 10111 10136 10165 10193 10222 10253 10287 10316 10348 10379 10407 10426 10439 10458 10477 10494 10504 10522 10530 10541 10552 10561 10569 10577 10583 10592 10598 10604 10608 10612 10614 10615 10616 10619 10625 10628 10630 10633 10637 10638 10637 10637 10633 10633 10630 10625 10620 10614 10606
9979 10003 10027 10054 10082 10107 10131 10160 10189 10219 10248 10281 10313 10343 10370 10395 10412 10431 10454 10468 10482 10499 10514 10524 10535 10543 10552 10560 10570 10577 10585 10591 10595 10600 10604 10605 10605 10609 10613 10615 10616 10620 10623 10626 10624 10622 10621 10620 10618 10614 10609 10603 10596 10589
9977 10001 10026 10053 10079 10105 10131 10159 10188 10217 10247 10279 10308 10338 10366 10388 10414 10436 10461 10473 10483 10496 10503 10513 10524 10537 10545 10554 10563 10570 10577 10583 10589 10593 10595 10596 10598 10602 10604 10605 10604 10610 10612 10611 10610 10609 10607 10605 10601 10596 10591 10588 10581 10574
9976 10001 10028 10053 10078 10104 10131 10159 10187 10217 10247 10275 10306 10336 10361 10389 10411 10425 10444 10455 10470 10481 10494 10509 10520 10529 10536 10546 10552 10560 10567 10575 10581 10585 10587 10589 10591 10593 10594 10593 10595 10598 10598 10598 10597 10593 10590 10588 10585 10582 10577 10572 10566 10558
9979 10005 10031 10054 10079 10106 10133 10161 10188 10214 10242 10273 10306 10333 10358 10377 10402 10421 10435 10448 10461 10473 10489 10504 10514 10521 10528 10538 10545 10555 10562 10568 10574 10577 10580 10583 10584 10585 10583 10584 10585 10587 10587 10584 10581 10579 10579 10577 10572 10568 10564 10558 10550 10540
9985 10009 10033 10058 10082 10108 10137 10161 10186 10215 10247 10279 10305 10324 10350 10377 10396 10413 10423 10436 10452 10463 10486 10497 10507 10513 10521 10531 10539 10548 10555 10562 10566 10569 10573 10575 10576 10573 10575 10575 10575 10574 10572 10571 10569 10569 10566 10562 10559 10555 10548 10540 10531 10522
9991 10017 10041 10065 10090 10116 10142 10168 10196 10226 10252 10272 10298 10329 10356 10376 10389 10398 10415 10429 10444 10464 10482 10494 10502 10508 10517 10526 10531 10541 10548 10555 10558 10561 10566 10566 10564 10563 10566 10565 10564 10563 10562 10561 10559 10556 10553 10549 10544 10538 10530 10522 10514 10505
10001 10027 10051 10074 10098 10123 10151 10178 10204 10233 10261 10291 10318 10342 10358 10365 10378 10393 10409 10425 10444 10466 10480 10487 10494 10501 10510 10517 10526 10534 10541 10547 10551 10552 10556 10554 10552 10557 10556 10554 10554 10553 10551 10549 10546 10543 10539 10534 10528 10520 10513 10505 10496 10486
10014 10039 10062 10086 10113 10140 10169 10198 10218 10240 10268 10294 10314 10334 10346 10359 10374 10394 10413 10432 10455 10471 10477 10477 10483 10493 10505 10513 10519 10526 10533 10538 10542 10544 10544 10543 10545 10545 10544 10544 10543 10541 10539 10536 10533 10529 10523 10517 10511 10504 10496 10486 10476 10466
10029 10053 10077 10104 10130 10155 10181 10207 10232 10255 10279 10298 10315 10332 10348 10366 10388 10407 10423 10438 10454 10451 10456 10471 10480 10492 10497 10506 10515 10521 10526 10530 10533 10533 10533 10535 10535 10534 10534 10532 10531 10529 10527 10523 10518 10513 10508 10502 10495 10486 10477 10467 10457 10445
10045 10068 10093 10118 10143 10170 10194 10212 10234 10258 10280 10299 10319 10338 10360 10379 10394 10407 10419 10425 10431 10446 10460 10469 10477 10486 10495 10503 10509 10514 10518 10521 10521 10522 10524 10525 10524 10523 10522 10521 10519 10517 10513 10508 10503 10498 10492 10485 10477 10468 10458 10447 10435 10422
10061 10082 10108 10130 10153 10174 10198 10223 10242 10258 10284 10311 10335 10353 10365 10377 10388 10401 10412 10425 10437 10447 10456 10465 10474 10482 10489 10497 10501 10506 10510 10510 10512 10514 10513 10513 10513 10512 10511 10509 10506 10502 10499 10494 10489 10483 10476 10468 10458 10448 10438 10425 10412 10398
10083 10103 10123 10148 10168 10190 10212 10235 10262 10283 10304 10321 10336 10349 10359 10369 10382 10396 10410 10423 10434 10444 10454 10461 10468 10475 10482 10490 10495 10498 10500 10502 10503 10503 10503 10503 10503 10501 10499 10496 10493 10490 10486 10480 10474 10466 10458 10449 10439 10428 10415 10402 10388 10373
10106 10120 10138 10160 10183 10207 10231 10251 10271 10292 10308 10321 10335 10347 10356 10372 10387 10399 10410 10421 10431 10439 10448 10456 10463 10472 10478 10483 10486 10489 10490 10491 10492 10492 10493 10492 10491 10489 10488 10485 10481 10476 10471 10464 10457 10448 10438 10428 10417 10406 10393 10380 10365 10348
10135 10153 10171 10191 10208 10225 10241 10257 10276 10291 10306 10319 10334 10346 10365 10379 10389 10399 10409 10418 10428 10438 10446 10454 10460 10465 10470 10474 10476 10478 10480 10482 10483 10483 10482 10482 10481 10478 10475 10471 10466 10461 10454 10447 10437 10428 10419 10406 10394 10381 10368 10353 10338 10324
10157 10175 10191 10205 10220 10235 10254 10267 10282 10300 10313 10329 10345 10357 10367 10376 10386 10398 10407 10417 10427 10434 10441 10448 10454 10459 10462 10465 10467 10470 10472 10473 10473 10474 10473 10470 10468 10465 10461 10457 10451 10444 10437 10428 10418 10409 10397 10385 10371 10358 10344 10331 10316 10299
10171 10188 10203 10218 10233 10248 10269 10283 10298 10308 10322 10336 10346 10357 10366 10377 10389 10400 10410 10416 10422 10430 10436 10442 10447 10451 10455 10458 10460 10462 10463 10464 10464 10462 10460 10458 10455 10451 10447 10441 10434 10426 10418 10409 10399 10387 10374 10362 10348 10335 10320 10306 10289 10273
10191 10202 10219 10233 10251 10267 10279 10293 10307 10322 10334 10343 10351 10360 10370 10380 10390 10398 10404 10413 10419 10425 10431 10437 10441 10445 10448 10450 10452 10454 10454 10454 10452 10451 10448 10444 10441 10437 10432 10425 10417 10409 10399 10390 10379 10367 10354 10339 10327 10314 10299 10280 10262 10243
10209 10223 10235 10249 10260 10272 10283 10297 10310 10324 10336 10344 10352 10361 10370 10379 10386 10395 10402 10409 10415 10421 10426 10430 10434 10438 10441 10443 10444 10444 10444 10442 10440 10437 10434 10432 10427 10422 10416 10408 10399 10390 10381 10369 10358 10346 10332 10321 10305 10287 10271 10253 10234 10217
10224 10238 10248 10259 10271 10282 10294 10305 10314 10323 10334 10344 10351 10359 10368 10378 10385 10392 10398 10404 10410 10415 10420 10424 10428 10431 10433 10434 10434 10433 10432 10429 10427 10424 10421 10416 10412 10406 10398 10390 10381 10372 10362 10351 10339 10325 10312 10297 10280 10264 10246 10229 10211 10193
10234 10244 10257 10268 10278 10289 10298 10309 10320 10329 10336 10342 10350 10359 10367 10375 10382 10389 10395 10401 10406 10410 10414 10418 10420 10422 10422 10423 10422 10421 10420 10417 10414 10411 10406 10402 10396 10389 10381 10372 10364 10354 10343 10331 10318 10303 10289 10274 10257 10238 10221 10203 10187 10168
10244 10255 10266 10275 10284 10295 10306 10314 10321 10328 10336 10344 10351 10359 10366 10373 10380 10385 10391 10395 10400 10404 10406 10409 10411 10411 10411 10411 10410 10409 10407 10405 10401 10397 10392 10387 10380 10372 10364 10356 10346 10335 10322 10309 10296 10281 10265 10250 10232 10216 10199 10182 10163 10143
10251 10260 10270 10279 10288 10297 10305 10311 10320 10327 10335 10344 10351 10358 10365 10370 10376 10381 10385 10389 10392 10395 10398 10400 10400 10399 10399 10399 10397 10396 10393 10390 10387 10382 10377 10370 10363 10355 10347 10338 10326 10313 10301 10288 10273 10258 10243 10227 10207 10193 10174 10157 10137 10120
10256 10265 10274 10281 10289 10296 10304 10313 10322 10329 10335 10342 10350 10356 10361 10365 10369 10373 10378 10382 10385 10388 10388 10388 10389 10388 10388 10387 10385 10382 10380 10377 10372 10366 10359 10353 10346 10338 10329 10317 10305 10292 10280 10265 10250 10235 10219 10200 10184 10168 10150 10131 10113 10096
10262 10270 10279 10286 10293 10301 10308 10314 10319 10325 10331 10337 10343 10348 10354 10359 10364 10367 10371 10374 10377 10378 10377 10378 10378 10377 10375 10374 10371 10369 10366 10362 10355 10349 10343 10336 10329 10320 10309 10296 10283 10271 10257 10241 10226 10211 10193 10176 10159 10143 10126 10107 10092 10076
10265 10272 10279 10285 10292 10298 10304 10310 10317 10324 10329 10335 10341 10346 10350 10353 10357 10360 10364 10366 10366 10367 10367 10366 10365 10364 10362 10360 10358 10355 10350 10344 10339 10333 10326 10318 10309 10298 10286 10274 10262 10247 10232 10218 10202 10185 10167 10151 10133 10117 10099 10083 10069 10054
10267 10273 10279 10285 10291 10297 10303 10310 10315 10320 10325 10330 10334 10338 10341 10346 10349 10352 10353 10354 10355 10355 10354 10354 10352 10350 10349 10346 10342 10338 10333 10328 10322 10315 10306 10298 10288 10278 10265 10251 10237 10222 10208 10193 10175 10159 10142 10126 10108 10093 10077 10064 10049 10035
10266 10272 10277 10282 10287 10293 10299 10304 10309 10313 10317 10322 10326 10330 10334 10336 10338 10340 10341 10342 10342 10342 10341 10340 10338 10336 10333 10330 10326 10321 10316 10310 10302 10294 10286 10278 10268 10255 10241 10227 10212 10198 10182 10166 10150 10134 10117 10101 10085 10069 10055 10041 10029 10018
10262 10268 10274 10279 10284 10289 10293 10298 10302 10306 10310 10314 10317 10320 10322 10325 10326 10328 10328 10329 10329 10328 10326 10325 10323 10321 10317 10313 10309 10303 10297 10290 10283 10275 10266 10257 10245 10231 10216 10201 10188 10172 10157 10142 10125 10110 10093 10079 10063 10048 10036 10024 10014 10003